GW6950 Weather Reports


time (UTC)temp
C
wind
direction
speed
KPH
gust
KPH
rain 1hr
cm
rain 24hr
cm
rain mn
cm
humidity
%
barometer
mb
20260504000959 32 176 3.2 6.4 0.00 0.00 0.00 32 1008.7
20260503235959 32 220 1.6 6.4 0.00 0.00 0.00 30 1009.0
20260503234955 32 191 0.0 4.8 0.00 0.00 0.00 32 1008.9
20260503234412 32 168 1.6 3.2 0.00 0.00 0.00 34 1009.0
20260503232929 31 285 1.6 4.8 0.00 0.00 0.00 33 1009.2
20260503231931 31 313 1.6 3.2 0.00 0.00 0.00 34 1009.3
20260503230930 31 310 1.6 3.2 0.00 0.00 0.00 34 1009.4
20260503225930 31 255 0.0 4.8 0.00 0.00 0.00 38 1009.6
20260503224930 30 260 1.6 4.8 0.00 0.00 0.00 36 1009.8
20260503223929 30 268 1.6 4.8 0.00 0.00 0.00 36 1010.0
20260503222930 29 331 0.0 6.4 0.00 0.00 0.00 37 1009.9
20260503221930 29 27 1.6 6.4 0.00 0.00 0.00 38 1010.1
20260503220929 28 255 1.6 4.8 0.00 0.00 0.00 38 1010.2
20260503220405 28 354 0.0 4.8 0.00 0.00 0.00 42 1010.4
20260503215359 28 255 1.6 4.8 0.00 0.00 0.00 43 1010.5
20260503213928 27 262 1.6 4.8 0.00 0.00 0.00 42 1010.6
20260503212922 27 256 1.6 4.8 0.00 0.00 0.00 45 1010.8
20260503211921 27 249 3.2 4.8 0.00 0.00 0.00 43 1010.6
20260503210920 26 232 3.2 4.8 0.00 0.00 0.00 44 1011.1
20260503205916 26 251 3.2 4.8 0.00 0.00 0.00 47 1011.1
20260503204915 25 260 0.0 4.8 0.00 0.00 0.00 45 1011.2
20260503203910 25 257 3.2 4.8 0.00 0.00 0.00 51 1011.3
20260503202907 25 253 0.0 4.8 0.00 0.00 0.00 55 1011.5
20260503201907 24 250 1.6 4.8 0.00 0.00 0.00 54 1011.8
20260503200902 23 252 3.2 4.8 0.00 0.00 0.00 55 1012.0
20260503200345 23 246 0.0 4.8 0.00 0.00 0.00 56 1012.0
20260503194901 23 245 1.6 4.8 0.00 0.00 0.00 54 1012.3
20260503194406 22 248 1.6 4.8 0.00 0.00 0.00 56 1012.1
20260503192859 22 254 3.2 4.8 0.00 0.00 0.00 61 1012.3
20260503191857 22 244 3.2 4.8 0.00 0.00 0.00 59 1012.4
20260503190857 21 255 1.6 4.8 0.00 0.00 0.00 62 1012.7
20260503190344 20 256 1.6 4.8 0.00 0.00 0.00 66 1012.6
20260503184852 20 247 3.2 4.8 0.00 0.00 0.00 66 1012.8
20260503183850 20 245 3.2 4.8 0.00 0.00 0.00 69 1013.0
20260503182848 19 241 1.6 4.8 0.00 0.00 0.00 68 1013.0
20260503181844 18 231 1.6 3.2 0.00 0.00 0.00 70 1013.2
20260503180841 18 221 3.2 3.2 0.00 0.00 0.00 69 1013.2
20260503175838 17 219 1.6 3.2 0.00 0.00 0.00 77 1013.3
20260503174830 17 218 1.6 3.2 0.00 0.00 0.00 83 1013.3
20260503173830 16 216 1.6 3.2 0.00 0.00 0.00 81 1013.4
20260503172829 16 216 0.0 3.2 0.00 0.00 0.00 84 1013.5
20260503171829 15 217 1.6 3.2 0.00 0.00 0.00 84 1013.5
20260503170828 15 216 1.6 3.2 0.00 0.00 0.00 83 1013.5
20260503150802 11 222 0.0 1.6 0.00 0.00 0.00 89 1013.9
20260503130744 11 170 0.0 1.6 0.00 0.00 0.00 86 1013.7
20260503110726 11 170 0.0 0.0 0.00 0.00 0.00 84 1013.8
20260503110216 11 170 0.0 0.0 0.00 0.00 0.00 83 1013.8
20260503080702 13 170 0.0 0.0 0.00 0.00 0.00 77 1014.1
20260503072702 14 170 0.0 0.0 0.00 0.00 0.00 74 1013.9
20260503071701 14 170 0.0 0.0 0.00 0.00 0.00 73 1014.0
20260503070701 15 170 0.0 0.0 0.00 0.00 0.00 74 1013.7
20260503054702 16 170 0.0 0.0 0.00 0.00 0.00 65 1014.0
20260503053658 16 170 0.0 0.0 0.00 0.00 0.00 64 1013.7
20260503053141 17 170 0.0 0.0 0.00 0.00 0.00 63 1013.8
20260503051654 17 170 0.0 0.0 0.00 0.00 0.00 63 1013.7
20260503050653 17 170 0.0 0.0 0.00 0.00 0.00 62 1013.8
20260503045653 18 170 0.0 0.0 0.00 0.00 0.00 61 1013.6
20260503044650 18 170 0.0 0.0 0.00 0.00 0.00 60 1013.5
20260503044127 18 170 0.0 0.0 0.00 0.00 0.00 60 1013.4
20260503042647 19 170 0.0 0.0 0.00 0.00 0.00 61 1013.2
20260503041645 20 170 0.0 0.0 0.00 0.00 0.00 58 1013.2
20260503040642 20 170 0.0 0.0 0.00 0.00 0.00 58 1013.1
20260503035639 21 170 0.0 0.0 0.00 0.00 0.00 56 1012.8
20260503034636 21 170 0.0 0.0 0.00 0.00 0.00 56 1012.7
20260503033636 22 170 0.0 1.6 0.00 0.00 0.00 54 1012.6
20260503032631 22 170 0.0 1.6 0.00 0.00 0.00 53 1012.7
20260503032115 23 170 0.0 1.6 0.00 0.00 0.00 50 1012.4
20260503030629 24 170 0.0 1.6 0.00 0.00 0.00 48 1012.3
20260503025628 25 170 0.0 1.6 0.00 0.00 0.00 47 1012.2
20260503024627 25 170 0.0 1.6 0.00 0.00 0.00 46 1012.0
20260503024042 25 168 0.0 3.2 0.00 0.00 0.00 46 1012.1
20260503022601 25 169 0.0 3.2 0.00 0.00 0.00 44 1011.7
20260503021601 25 147 0.0 3.2 0.00 0.00 0.00 45 1011.9
20260503020601 25 187 0.0 3.2 0.00 0.00 0.00 44 1011.8
20260503015601 25 105 0.0 4.8 0.00 0.00 0.00 44 1011.9
20260503014601 25 187 0.0 4.8 0.00 0.00 0.00 44 1011.8
20260503013601 25 176 0.0 4.8 0.00 0.00 0.00 42 1011.8
20260503012603 26 220 0.0 6.4 0.00 0.00 0.00 43 1011.8
20260503011602 26 195 1.6 9.7 0.00 0.00 0.00 43 1012.0
20260503010602 26 295 0.0 6.4 0.00 0.00 0.00 43 1011.9
20260503010038 26 14 0.0 4.8 0.00 0.00 0.00 43 1011.9
20260503004601 26 58 0.0 6.4 0.00 0.00 0.00 43 1012.0
20260503003601 27 117 0.0 3.2 0.00 0.00 0.00 43 1012.2
20260503002601 27 32 1.6 4.8 0.00 0.00 0.00 41 1012.3